Time,TemperatureF,DewpointF,PressureIn,WindDirection,WindDirectionDegrees,WindSpeedMPH,WindSpeedGustMPH,Humidity,HourlyPrecipIn,Conditions,Clouds,dailyrainin,SoftwareType,DateUTC
2013-11-05 00:01:00,50.1,43.8,30.08,South,178,0.0,0.0,79,0.00,,---,0.00,VWS V14.01,2013-11-05 06:01:00,
2013-11-05 00:06:00,50.1,44.2,30.08,South,178,0.0,0.0,80,0.00,,---,0.00,VWS V14.01,2013-11-05 06:06:00,
2013-11-05 00:11:00,50.1,44.2,30.08,South,178,0.0,0.0,80,0.00,,---,0.00,VWS V14.01,2013-11-05 06:11:00,
2013-11-05 00:16:00,49.9,44.0,30.09,South,178,0.0,0.0,80,0.00,,---,0.00,VWS V14.01,2013-11-05 06:16:00,
2013-11-05 00:21:00,49.9,44.0,30.09,South,178,0.0,0.0,80,0.00,,---,0.00,VWS V14.01,2013-11-05 06:21:00,
2013-11-05 00:26:00,49.8,43.9,30.09,South,178,0.0,0.0,80,0.00,,---,0.00,VWS V14.01,2013-11-05 06:26:00,
2013-11-05 00:31:00,49.8,43.9,30.09,South,178,0.0,0.0,80,0.00,,---,0.00,VWS V14.01,2013-11-05 06:31:00,
2013-11-05 00:36:00,49.6,44.0,30.09,South,178,0.0,0.0,81,0.00,,---,0.00,VWS V14.01,2013-11-05 06:36:00,
2013-11-05 00:41:00,49.6,44.0,30.09,South,178,0.0,0.0,81,0.00,,---,0.00,VWS V14.01,2013-11-05 06:41:00,
2013-11-05 00:46:00,49.5,43.9,30.09,South,178,0.0,0.0,81,0.00,,---,0.00,VWS V14.01,2013-11-05 06:46:00,
2013-11-05 00:51:00,49.5,43.9,30.09,South,178,0.0,0.0,81,0.00,,---,0.00,VWS V14.01,2013-11-05 06:51:00,
2013-11-05 00:56:00,49.4,43.8,30.09,South,178,0.0,0.0,81,0.00,,---,0.00,VWS V14.01,2013-11-05 06:56:00,
2013-11-05 01:01:00,49.2,44.0,30.09,South,178,0.0,0.0,82,0.00,,---,0.00,VWS V14.01,2013-11-05 07:01:00,
2013-11-05 01:06:00,49.2,44.0,30.09,South,178,0.0,0.0,82,0.00,,---,0.00,VWS V14.01,2013-11-05 07:06:00,
2013-11-05 01:11:00,49.2,44.0,30.09,South,178,0.0,0.0,82,0.00,,---,0.00,VWS V14.01,2013-11-05 07:11:00,
2013-11-05 01:16:00,49.2,44.0,30.09,South,178,0.0,0.0,82,0.00,,---,0.00,VWS V14.01,2013-11-05 07:16:00,
2013-11-05 01:21:00,49.2,44.0,30.09,South,178,0.0,0.0,82,0.00,,---,0.00,VWS V14.01,2013-11-05 07:21:00,
2013-11-05 01:26:00,49.1,43.8,30.09,South,178,0.0,0.0,82,0.00,,---,0.00,VWS V14.01,2013-11-05 07:26:00,
2013-11-05 01:31:00,49.1,43.8,30.09,South,178,0.0,0.0,82,0.00,,---,0.00,VWS V14.01,2013-11-05 07:31:00,
2013-11-05 01:36:00,49.1,43.8,30.09,South,178,0.0,0.0,82,0.00,,---,0.00,VWS V14.01,2013-11-05 07:36:00,
2013-11-05 01:41:00,49.1,43.8,30.09,South,178,0.0,0.0,82,0.00,,---,0.00,VWS V14.01,2013-11-05 07:41:00,
2013-11-05 01:46:00,49.1,43.8,30.10,South,178,0.0,0.0,82,0.00,,---,0.00,VWS V14.01,2013-11-05 07:46:00,
2013-11-05 01:51:00,49.1,43.8,30.10,South,178,0.0,0.0,82,0.00,,---,0.00,VWS V14.01,2013-11-05 07:51:00,
2013-11-05 01:56:00,48.9,43.7,30.10,South,178,0.0,0.0,82,0.00,,---,0.00,VWS V14.01,2013-11-05 07:56:00,
2013-11-05 02:01:00,48.9,43.7,30.10,South,178,0.0,0.0,82,0.00,,---,0.00,VWS V14.01,2013-11-05 08:01:00,
2013-11-05 02:06:00,48.9,43.7,30.10,South,178,0.0,0.0,82,0.00,,---,0.00,VWS V14.01,2013-11-05 08:06:00,
2013-11-05 02:11:00,48.8,43.6,30.10,South,178,0.0,0.0,82,0.00,,---,0.00,VWS V14.01,2013-11-05 08:11:00,
2013-11-05 02:16:00,48.8,43.9,30.10,South,178,0.0,0.0,83,0.00,,---,0.00,VWS V14.01,2013-11-05 08:16:00,
2013-11-05 02:21:00,48.8,43.9,30.10,South,178,0.0,0.0,83,0.00,,---,0.00,VWS V14.01,2013-11-05 08:21:00,
2013-11-05 02:26:00,48.8,43.9,30.10,South,178,0.0,0.0,83,0.00,,---,0.00,VWS V14.01,2013-11-05 08:26:00,
2013-11-05 02:31:00,48.8,43.9,30.10,South,178,0.0,0.0,83,0.00,,---,0.00,VWS V14.01,2013-11-05 08:31:00,
2013-11-05 02:36:00,48.9,44.0,30.10,South,178,0.0,0.0,83,0.00,,---,0.00,VWS V14.01,2013-11-05 08:36:00,
2013-11-05 02:41:00,48.9,44.0,30.10,South,178,0.0,0.0,83,0.00,,---,0.00,VWS V14.01,2013-11-05 08:41:00,
2013-11-05 02:46:00,48.9,44.0,30.10,South,178,0.0,0.0,83,0.00,,---,0.00,VWS V14.01,2013-11-05 08:46:00,
2013-11-05 02:51:00,48.9,44.0,30.10,South,178,0.0,0.0,83,0.00,,---,0.00,VWS V14.01,2013-11-05 08:51:00,
2013-11-05 02:56:00,48.8,43.9,30.10,South,178,0.0,0.0,83,0.00,,---,0.00,VWS V14.01,2013-11-05 08:56:00,
2013-11-05 03:01:00,48.8,43.9,30.11,South,178,0.0,0.0,83,0.00,,---,0.00,VWS V14.01,2013-11-05 09:01:00,
2013-11-05 03:06:00,48.8,43.9,30.11,South,178,0.0,0.0,83,0.00,,---,0.00,VWS V14.01,2013-11-05 09:06:00,
2013-11-05 03:11:00,48.6,43.7,30.11,South,178,0.0,0.0,83,0.00,,---,0.00,VWS V14.01,2013-11-05 09:11:00,
2013-11-05 03:16:00,48.6,43.7,30.11,South,178,0.0,0.0,83,0.00,,---,0.00,VWS V14.01,2013-11-05 09:16:00,
2013-11-05 03:21:00,48.6,43.7,30.11,South,178,0.0,0.0,83,0.00,,---,0.00,VWS V14.01,2013-11-05 09:21:00,
2013-11-05 03:26:00,48.6,44.0,30.11,South,178,0.0,0.0,84,0.00,,---,0.00,VWS V14.01,2013-11-05 09:26:00,
2013-11-05 03:31:00,48.6,44.0,30.11,South,178,0.0,0.0,84,0.00,,---,0.00,VWS V14.01,2013-11-05 09:31:00,
2013-11-05 03:36:00,48.6,44.0,30.11,South,178,0.0,0.0,84,0.00,,---,0.00,VWS V14.01,2013-11-05 09:36:00,
2013-11-05 03:41:00,48.6,44.0,30.11,South,178,0.0,0.0,84,0.00,,---,0.00,VWS V14.01,2013-11-05 09:41:00,
2013-11-05 03:46:00,48.6,44.0,30.12,South,178,0.0,0.0,84,0.00,,---,0.00,VWS V14.01,2013-11-05 09:46:00,
2013-11-05 03:50:00,48.6,44.0,30.12,South,178,0.0,0.0,84,0.00,,---,0.00,VWS V14.01,2013-11-05 09:50:00,
2013-11-05 03:55:00,48.6,44.0,30.12,South,178,0.0,0.0,84,0.00,,---,0.00,VWS V14.01,2013-11-05 09:55:00,
2013-11-05 04:00:00,48.6,44.3,30.12,South,178,0.0,0.0,85,0.00,,---,0.00,VWS V14.01,2013-11-05 10:00:00,
2013-11-05 04:05:00,48.6,44.3,30.12,South,178,0.0,0.0,85,0.00,,---,0.00,VWS V14.01,2013-11-05 10:05:00,
2013-11-05 04:10:00,48.6,44.3,30.12,South,178,0.0,0.0,85,0.00,,---,0.00,VWS V14.01,2013-11-05 10:10:00,
2013-11-05 04:15:00,48.6,44.3,30.12,South,178,0.0,0.0,85,0.00,,---,0.00,VWS V14.01,2013-11-05 10:15:00,
2013-11-05 04:20:00,48.5,44.2,30.12,South,178,0.0,0.0,85,0.00,,---,0.00,VWS V14.01,2013-11-05 10:20:00,
2013-11-05 04:25:00,48.5,44.2,30.12,South,178,0.0,0.0,85,0.00,,---,0.00,VWS V14.01,2013-11-05 10:25:00,
2013-11-05 04:30:00,48.5,44.2,30.13,South,178,0.0,0.0,85,0.00,,---,0.00,VWS V14.01,2013-11-05 10:30:00,
2013-11-05 04:35:00,48.5,44.2,30.13,South,178,0.0,0.0,85,0.00,,---,0.00,VWS V14.01,2013-11-05 10:35:00,
2013-11-05 04:40:00,48.5,44.2,30.13,South,178,0.0,0.0,85,0.00,,---,0.00,VWS V14.01,2013-11-05 10:40:00,
2013-11-05 04:45:00,48.5,44.2,30.13,South,178,0.0,0.0,85,0.00,,---,0.00,VWS V14.01,2013-11-05 10:45:00,
2013-11-05 04:50:00,48.5,44.2,30.13,South,178,0.0,0.0,85,0.00,,---,0.00,VWS V14.01,2013-11-05 10:50:00,
2013-11-05 04:55:00,48.5,44.2,30.13,South,178,0.0,0.0,85,0.00,,---,0.00,VWS V14.01,2013-11-05 10:55:00,
2013-11-05 05:01:00,48.5,44.2,30.13,South,178,0.0,0.0,85,0.00,,---,0.00,VWS V14.01,2013-11-05 11:01:00,
2013-11-05 05:06:00,48.5,44.2,30.13,South,178,0.0,0.0,85,0.00,,---,0.00,VWS V14.01,2013-11-05 11:06:00,
2013-11-05 05:11:00,48.5,44.2,30.13,South,178,0.0,0.0,85,0.00,,---,0.00,VWS V14.01,2013-11-05 11:11:00,
2013-11-05 05:16:00,48.3,44.0,30.14,South,178,0.0,0.0,85,0.00,,---,0.00,VWS V14.01,2013-11-05 11:16:00,
2013-11-05 05:21:00,48.3,44.3,30.14,South,178,0.0,0.0,86,0.00,,---,0.00,VWS V14.01,2013-11-05 11:21:00,
2013-11-05 05:27:00,48.3,44.3,30.14,North,0,0.0,0.0,86,0.00,,---,0.00,VWS V14.01,2013-11-05 11:27:00,
2013-11-05 05:32:00,48.2,44.2,30.14,South,178,0.0,0.0,86,0.00,,---,0.00,VWS V14.01,2013-11-05 11:32:00,
2013-11-05 05:37:00,48.2,44.2,30.14,South,178,0.0,0.0,86,0.00,,---,0.00,VWS V14.01,2013-11-05 11:37:00,
2013-11-05 05:42:00,48.2,44.2,30.14,South,178,0.0,0.0,86,0.00,,---,0.00,VWS V14.01,2013-11-05 11:42:00,
2013-11-05 05:47:00,48.0,44.0,30.14,South,178,0.0,0.0,86,0.00,,---,0.00,VWS V14.01,2013-11-05 11:47:00,
2013-11-05 05:52:00,48.0,44.0,30.14,South,178,0.0,0.0,86,0.00,,---,0.00,VWS V14.01,2013-11-05 11:52:00,
2013-11-05 05:57:00,47.9,43.9,30.14,South,178,0.0,0.0,86,0.00,,---,0.00,VWS V14.01,2013-11-05 11:57:00,
2013-11-05 06:02:00,47.7,43.7,30.14,South,178,0.0,0.0,86,0.00,,---,0.00,VWS V14.01,2013-11-05 12:02:00,
2013-11-05 06:07:00,47.7,44.0,30.14,South,178,0.0,0.0,87,0.00,,---,0.00,VWS V14.01,2013-11-05 12:07:00,
2013-11-05 06:12:00,47.6,43.9,30.14,South,178,0.0,0.0,87,0.00,,---,0.00,VWS V14.01,2013-11-05 12:12:00,
2013-11-05 06:17:00,47.6,43.9,30.14,South,178,0.0,0.0,87,0.00,,---,0.00,VWS V14.01,2013-11-05 12:17:00,
2013-11-05 06:22:00,47.4,43.7,30.14,South,178,0.0,0.0,87,0.00,,---,0.00,VWS V14.01,2013-11-05 12:22:00,
2013-11-05 06:27:00,47.4,43.7,30.14,South,178,0.0,0.0,87,0.00,,---,0.00,VWS V14.01,2013-11-05 12:27:00,
2013-11-05 06:32:00,47.4,44.0,30.15,South,178,0.0,0.0,88,0.00,,---,0.00,VWS V14.01,2013-11-05 12:32:00,
2013-11-05 06:37:00,47.4,44.0,30.15,South,178,0.0,0.0,88,0.00,,---,0.00,VWS V14.01,2013-11-05 12:37:00,
2013-11-05 06:42:00,47.3,43.9,30.15,South,178,0.0,0.0,88,0.00,,---,0.00,VWS V14.01,2013-11-05 12:42:00,
2013-11-05 06:47:00,47.3,43.9,30.15,South,178,0.0,0.0,88,0.00,,---,0.00,VWS V14.01,2013-11-05 12:47:00,
2013-11-05 06:52:00,47.3,43.9,30.15,South,178,0.0,0.0,88,0.00,,---,0.00,VWS V14.01,2013-11-05 12:52:00,
2013-11-05 06:57:00,47.3,44.2,30.15,South,178,0.0,0.0,89,0.00,,---,0.00,VWS V14.01,2013-11-05 12:57:00,
2013-11-05 07:02:00,47.3,44.2,30.15,South,178,0.0,0.0,89,0.00,,---,0.00,VWS V14.01,2013-11-05 13:02:00,
2013-11-05 07:07:00,47.3,44.2,30.15,South,178,0.0,0.0,89,0.00,,---,0.00,VWS V14.01,2013-11-05 13:07:00,
2013-11-05 07:12:00,47.3,44.2,30.15,South,178,0.0,0.0,89,0.00,,---,0.00,VWS V14.01,2013-11-05 13:12:00,
2013-11-05 07:17:00,47.3,44.2,30.16,South,178,0.0,0.0,89,0.00,,---,0.00,VWS V14.01,2013-11-05 13:17:00,
2013-11-05 07:22:00,47.4,44.3,30.16,South,178,0.0,0.0,89,0.00,,---,0.00,VWS V14.01,2013-11-05 13:22:00,
2013-11-05 07:27:00,47.4,44.3,30.16,South,178,0.0,0.0,89,0.00,,---,0.00,VWS V14.01,2013-11-05 13:27:00,
2013-11-05 07:32:00,47.6,44.5,30.16,South,178,0.0,0.0,89,0.00,,---,0.00,VWS V14.01,2013-11-05 13:32:00,
2013-11-05 07:37:00,47.7,44.6,30.16,South,178,0.0,0.0,89,0.00,,---,0.00,VWS V14.01,2013-11-05 13:37:00,
2013-11-05 07:42:00,47.9,44.8,30.16,South,178,0.0,0.0,89,0.00,,---,0.00,VWS V14.01,2013-11-05 13:42:00,
2013-11-05 07:47:00,48.0,44.9,30.16,South,175,0.0,0.0,89,0.00,,---,0.00,VWS V14.01,2013-11-05 13:47:00,
2013-11-05 07:52:00,48.2,44.8,30.16,South,175,0.0,0.0,88,0.00,,---,0.00,VWS V14.01,2013-11-05 13:52:00,
2013-11-05 07:57:00,48.2,44.8,30.16,South,175,0.0,0.0,88,0.00,,---,0.00,VWS V14.01,2013-11-05 13:57:00,
2013-11-05 08:02:00,48.3,44.9,30.16,South,175,0.0,0.0,88,0.00,,---,0.00,VWS V14.01,2013-11-05 14:02:00,
2013-11-05 08:07:00,48.5,45.1,30.16,South,175,0.0,0.0,88,0.00,,---,0.00,VWS V14.01,2013-11-05 14:07:00,
2013-11-05 08:12:00,48.6,45.2,30.16,South,175,0.0,0.0,88,0.00,,---,0.00,VWS V14.01,2013-11-05 14:12:00,
2013-11-05 08:17:00,48.8,45.4,30.16,South,175,0.0,0.0,88,0.00,,---,0.00,VWS V14.01,2013-11-05 14:17:00,
2013-11-05 08:22:00,48.9,45.2,30.16,South,175,0.0,0.0,87,0.00,,---,0.00,VWS V14.01,2013-11-05 14:22:00,
2013-11-05 08:27:00,49.1,45.4,30.16,South,175,0.0,0.0,87,0.00,,---,0.00,VWS V14.01,2013-11-05 14:27:00,
2013-11-05 08:32:00,49.2,45.2,30.17,South,175,0.0,0.0,86,0.00,,---,0.00,VWS V14.01,2013-11-05 14:32:00,
2013-11-05 08:37:00,49.4,45.1,30.17,South,175,0.0,0.0,85,0.00,,---,0.00,VWS V14.01,2013-11-05 14:37:00,
2013-11-05 08:42:00,49.5,45.2,30.17,South,175,0.0,0.0,85,0.00,,---,0.00,VWS V14.01,2013-11-05 14:42:00,
2013-11-05 08:47:00,49.6,45.0,30.17,South,175,0.0,0.0,84,0.00,,---,0.00,VWS V14.01,2013-11-05 14:47:00,
2013-11-05 08:52:00,49.8,45.2,30.17,South,175,0.0,0.0,84,0.00,,---,0.00,VWS V14.01,2013-11-05 14:52:00,
2013-11-05 08:57:00,49.9,45.0,30.17,South,175,0.0,0.0,83,0.00,,---,0.00,VWS V14.01,2013-11-05 14:57:00,